Hourly Data Report for October 15, 2014

All times are specified in Local Standard Time (LST). Add 1 hour to adjust for Daylight Saving Time where and when it is observed.

TORONTO INTL A
ONTARIO

43°40'36.000" N
79°37'50.000" W
173.40 m
6158731
71624
YYZ

Download Data

Hourly Data (October 2014)
Hourly Data Report for October 15, 2014
Temp Definition
°C
Dew Point Temp Definition
°C
Rel Hum Definition
%
Wind Dir Definition
10's deg

Wind Spd Definition
km/h
Visibility Definition
km
Stn Press Definition
kPa
Hmdx Definition


Wind Chill Definition


Weather Definition


TIME
00:00 Legend Double Dagger 19.3 16.9 86 11 13 19.3 98.70     Rain Showers
01:00 Legend Double Dagger 19.1 17.3 89 10 12 19.3 98.67     Rain Showers
02:00 Legend Double Dagger 18.5 17.4 93 10 15 19.3 98.67     Rain Showers
03:00 Legend Double Dagger 18.0 16.9 93 10 13 16.1 98.64     Rain Showers
04:00 Legend Double Dagger 16.2 15.1 93 28 17 16.1 98.76     Rain Showers
05:00 Legend Double Dagger 16.0 14.6 91 21 12 19.3 98.83     Rain Showers
06:00 Legend Double Dagger 15.7 14.4 92 16 11 19.3 98.84     LegendNANA
07:00 Legend Double Dagger 14.9 13.8 93 21 16 9.7 98.89     Fog
08:00 Legend Double Dagger 14.9 13.0 88 22 17 24.1 99.05     LegendNANA
09:00 Legend Double Dagger 15.0 13.4 90 22 7 12.9 99.03     Rain Showers
10:00 Legend Double Dagger 15.4 13.3 87 20 8 19.3 99.03     Cloudy
11:00 Legend Double Dagger 15.8 13.3 85 19 13 24.1 99.02     LegendNANA
12:00 Legend Double Dagger 16.3 13.3 82 19 7 24.1 99.04     LegendNANA
13:00 Legend Double Dagger 16.3 13.8 85 19 8 24.1 99.04     Cloudy
14:00 Legend Double Dagger 16.3 13.6 84 8 18 24.1 98.80     LegendNANA
15:00 Legend Double Dagger 16.4 13.9 85 15 11 24.1 98.93     LegendNANA
16:00 Legend Double Dagger 15.6 13.5 87 13 9 24.1 98.90     Cloudy
17:00 Legend Double Dagger 15.4 13.5 88 15 5 24.1 98.87     LegendNANA
18:00 Legend Double Dagger 14.8 13.0 89 19 6 19.3 98.95     LegendNANA
19:00 Legend Double Dagger 14.7 12.9 89 34 5 24.1 98.91     Mostly Cloudy
20:00 Legend Double Dagger 14.8 13.0 89 36 12 24.1 98.87     LegendNANA
21:00 Legend Double Dagger 14.2 12.8 91 3 8 16.1 98.89     LegendNANA
22:00 Legend Double Dagger 13.8 12.7 93 2 9 16.1 98.85     Mostly Cloudy
23:00 Legend Double Dagger 14.1 13.2 94 35 5 12.9 98.79     LegendNANA

Notes on Data Quality.

Legend

  • E = Estimated
  • M = Missing
  • NA = Not Available
  • ‡ = Partner data that is not subject to review by the National Climate Archives
Date modified: